Terminal Aerodrome Forecast
Issued by NWS

Home | Current Version | Previous Version | Text Only | Print | Product List | Glossary On
Versions: 1 2 3 4 5 6 7 8 9 10 11 12 13 14 15 16 17 18 19 20 21 22
000
FTUS43 KGRR 060900 AAB
TAFLAN
TAF AMD
KLAN 060906Z 0609/0706 08004KT 5SM BR OVC005
     FM061100 10004KT 4SM BR OVC005
     FM061400 12006KT 6SM HZ OVC007
     FM061800 13005KT P6SM OVC025
     FM062000 13005KT P6SM BKN050
     FM070000 VRB05KT P6SM BKN250=

USA.gov is the U.S. government's official web portal to all federal, state and local government web resources and services.